Tracking 29892 objects as of 21-Nov-2024
HD Live streaming from Space Station
objects crossing your sky now

STARLINK-2612

Track STARLINK-2612 now!
10-day predictions
STARLINK-2612 is classified as:


NORAD ID: 48379
Int'l Code: 2021-038AC
Perigee: 553.6 km
Apogee: 555.1 km
Inclination: 53.1 °
Period: 95.6 minutes
Semi major axis: 6925 km
RCS: Unknown
Launch date: May 4, 2021
Source: United States (US)
Launch site: AIR FORCE EASTERN TEST RANGE (AFETR)
Your satellite tracking list
Your tracking list is empty




NASA's NSSDC Master Catalog

Two Line Element Set (TLE):
1 48379U 21038AC  24325.02001214 -.00000846  00000-0 -37918-4 0  9993
2 48379  53.0548 322.4925 0001105  86.1110 274.0005 15.06405294195626
Source of the keplerian elements: AFSPC